User: anonymous   Login
Location: Drummondville
(45.8830°N, 72.4830°W)
Time: 00:43:23
(UTC-05:00)
Language:

Vanguard 2 Rocket - Orbit

View from above orbital plane
View from above orbital plane
View from above satellite
View from above satellite

Ground track
Ground track

The orbit data is extracted from the following two-line orbital elements,

1    12U 59001B   17327.51124465 +.00000109 +00000-0 +49096-4 0  9998
2    12 032.9045 028.7552 1665054 190.4344 165.7069 11.44145360172631
Epoch (UTC): 23 November 2017 12:16:11
Eccentricity: 0.1665054
inclination: 32.9045°
perigee height: 556 km
apogee height: 3326 km
right ascension of ascending node: 28.7552°
argument of perigee: 190.4344°
revolutions per day: 11.44145360
mean anomaly at epoch: 165.7069°
orbit number at epoch: 17263

The dashed part of the orbit path shows where the satellite is in the earth's shadow,  

DLR